Temperature
16 17 17 17 17 17 16 16 15 16 16 16 16 16 16 16 16 16 16 16 16 16 16 15 15 15 15 15 14 14 14 13 13 13 13 13 12 12 12 12 12 11 11 11
16 17 17 17 17 17 17 16 16 16 16 16 16 16 16 16 15 15 15 15 15 15 15 15 15 15 14 14 14 14 13 13 13 13 12 12 12 12 12 11 11 11 11 11
14 15 16 16 16 17 17 16 16 16 16 15 15 15 15 15 15 15 15 15 15 15 15 15 15 14 14 14 14 13 13 13 13 12 12 12 12 12 11 11 11 11 10 10
13 14 15 15 16 17 16 16 16 16 15 15 15 16 16 16 16 15 15 15 15 15 15 15 14 14 14 13 13 13 13 12 12 12 12 12 12 11 11 11 11 10 10 10
12 13 14 15 16 16 16 15 15 15 15 15 15 15 14 15 16 16 15 15 15 15 14 14 14 14 13 13 13 12 12 12 12 12 11 11 11 11 11 11 10 10 10 10
12 13 13 14 16 16 16 14 15 14 14 14 14 12 12 15 15 15 15 15 15 14 14 14 14 13 13 13 12 12 12 12 11 11 11 11 11 11 10 10 10 10 10 9
12 12 13 14 15 16 14 14 15 15 14 14 13 14 15 15 15 15 14 14 14 14 14 13 13 13 13 12 12 12 11 11 11 11 11 11 10 10 10 10 10 9 9 9
11 12 13 14 14 14 14 15 15 15 15 14 14 14 14 14 14 14 14 14 14 13 13 13 13 12 12 12 12 11 11 11 11 10 10 10 10 10 10 9 9 9 9 9
11 12 13 14 14 15 15 15 15 15 14 14 14 13 13 13 13 13 13 13 13 13 13 12 12 12 12 11 11 11 11 10 10 10 10 10 10 9 9 9 9 9 8 8
11 11 13 14 14 14 15 15 15 15 14 14 13 13 13 13 12 12 12 12 12 12 12 12 11 11 11 11 10 10 10 10 10 10 9 9 9 9 9 8 8 8 8 8
10 11 12 13 14 14 14 14 14 14 14 14 13 13 12 12 12 12 12 12 12 11 11 11 11 10 10 10 10 10 10 9 9 9 9 9 8 8 8 8 8 7 7 7
10 11 11 12 13 13 13 13 13 13 13 13 13 12 12 12 12 11 11 11 11 11 11 10 10 10 10 10 9 9 9 9 9 8 8 8 8 8 7 7 7 7 7 7
12 13 13 12 12 13 13 13 13 12 12 12 12 12 12 11 11 11 11 11 11 10 10 10 10 9 9 9 9 9 9 9 8 8 8 8 7 7 7 7 7 6 6 6
12 12 12 12 12 12 12 12 12 12 12 12 12 11 11 11 11 11 10 10 10 10 10 9 9 9 9 9 9 8 8 8 8 7 7 7 7 7 7 6 6 6 6 6
12 12 11 11 11 11 11 11 11 11 11 11 11 11 11 11 10 10 10 10 10 9 9 9 9 9 9 9 8 8 8 8 7 7 7 7 7 6 6 6 6 5 5 5
11 11 11 11 11 11 11 11 11 11 10 10 10 10 10 10 10 10 10 9 9 9 9 9 9 9 8 8 8 8 8 7 7 7 6 6 6 6 6 5 5 5 5 5
10 10 10 10 10 10 10 10 10 10 10 10 10 10 10 10 9 9 9 9 9 9 8 8 8 8 8 8 7 7 7 7 6 6 6 6 6 5 5 5 5 5 5 4
11 11 11 10 10 10 10 10 10 10 10 10 10 9 9 9 9 9 9 8 8 8 8 8 8 7 7 7 7 7 7 6 6 6 6 5 5 5 5 5 5 4 4 4
10 10 10 10 10 10 10 9 9 9 9 9 9 9 9 9 8 8 8 8 8 8 7 7 7 7 7 7 6 6 6 6 5 5 5 5 5 5 5 4 4 4 4 4
10 10 10 10 9 9 9 9 9 9 9 9 8 8 8 8 8 8 7 7 7 7 7 7 6 6 6 6 6 6 5 5 5 5 4 4 4 4 4 4 4 4 3 3
10 9 9 9 9 9 9 9 9 8 8 8 8 8 7 7 7 7 7 7 7 6 6 6 6 6 6 5 5 5 5 5 4 4 4 4 4 4 3 3 3 3 3 3
9 9 9 9 9 8 8 8 8 8 8 8 7 7 7 7 7 6 6 6 6 6 6 5 5 5 5 5 5 5 4 4 4 4 3 3 3 3 3 3 3 2 2 2
9 8 8 8 8 8 8 8 8 7 7 7 7 7 6 6 6 6 6 6 5 5 5 5 5 5 5 4 4 4 4 4 3 3 3 3 3 3 3 2 2 2 2 2
8 8 8 8 8 7 7 7 7 7 7 6 6 6 6 6 5 5 5 5 5 5 4 4 4 4 4 4 4 3 3 3 3 3 3 2 2 2 2 2 2 2 2 2
8 8 7 7 7 7 7 6 6 6 6 6 5 5 5 5 5 5 4 4 4 4 4 4 4 4 3 3 3 3 3 2 2 2 2 2 2 2 2 2 1 1 1 1
7 7 7 7 7 6 6 6 6 5 5 5 5 5 4 4 4 4 4 4 4 4 3 3 3 3 3 3 2 2 2 2 2 2 2 1 1 1 1 1 1 1 1 1
6 6 6 6 6 6 5 5 5 5 5 5 4 4 4 4 4 4 3 3 3 3 3 3 3 3 2 2 2 2 2 1 1 1 1 1 1 1 1 0 0 0 0 0
Wind_Speed
5 5 4 5 6 5 5 7 7 8 8 7 6 6 5 4 4 5 4 4 4 4 4 4 4 5 5 5 5 5 6 6 6 6 5 5 5 5 5 4 5 5 4 4
3 3 3 5 7 7 6 5 5 5 6 5 4 3 3 4 5 5 4 4 4 4 4 4 5 5 5 5 5 5 6 6 6 4 4 5 5 5 4 4 4 3 4 4
3 4 3 5 5 5 4 3 4 5 6 2 1 4 6 6 6 6 5 4 4 4 5 5 5 5 6 5 4 5 5 5 5 5 5 5 5 5 5 5 4 4 4 4
1 2 5 6 3 3 4 1 2 3 3 3 3 4 4 4 6 5 5 4 4 4 3 3 3 3 3 3 4 5 4 4 4 5 5 4 4 5 5 5 5 4 4 4
3 3 6 5 3 2 3 3 2 2 1 1 2 3 1 1 4 5 5 4 4 4 3 3 3 3 3 3 3 4 4 5 5 5 5 4 5 5 4 4 4 4 4 4
3 3 5 6 5 2 3 3 4 2 3 2 4 1 4 3 2 2 2 2 3 3 3 3 2 3 4 3 3 4 5 5 5 4 5 5 5 4 3 4 4 4 3 4
3 4 5 6 4 2 3 6 3 2 4 4 4 5 4 2 1 1 1 2 3 3 3 2 2 3 3 3 4 4 3 3 3 4 4 4 3 3 3 3 3 3 3 3
3 3 6 3 2 3 5 3 2 2 3 3 1 0 1 2 2 1 1 2 3 3 1 1 1 3 3 3 4 2 2 2 3 3 3 2 3 2 3 4 3 3 2 2
5 5 4 2 2 3 3 2 2 2 3 4 3 1 1 1 1 1 1 1 2 3 1 0 1 2 4 4 2 2 2 2 2 2 2 2 3 3 3 3 3 3 3 2
2 4 4 3 3 2 2 2 2 3 3 4 3 2 2 1 1 1 1 1 1 2 2 1 2 1 3 3 3 3 3 2 2 2 1 1 1 2 3 3 3 3 3 3
3 5 4 4 3 3 2 1 1 1 1 3 4 3 3 2 2 2 1 2 2 2 2 3 2 1 2 3 4 3 3 2 2 2 2 1 1 1 2 3 4 4 4 3
6 6 4 5 4 2 1 1 1 1 0 1 3 3 2 3 2 2 2 2 2 2 2 3 2 2 2 3 4 4 3 2 2 2 2 2 2 1 1 1 1 2 3 3
6 5 5 4 4 3 3 3 3 3 3 2 2 3 3 2 3 3 2 3 3 3 3 3 2 3 3 3 4 4 4 3 2 3 3 3 3 2 1 2 2 0 1 1
3 2 3 4 4 4 3 2 2 1 2 3 2 2 2 2 2 3 4 5 4 3 3 2 2 3 4 3 4 4 4 4 4 3 4 4 3 3 3 3 1 1 2 1
4 4 5 4 3 3 2 1 1 1 1 1 2 2 3 3 4 4 4 3 3 2 2 2 3 3 3 3 4 4 4 3 3 3 3 3 3 3 3 3 2 2 1 1
3 2 2 2 3 3 2 2 2 3 3 2 2 3 4 4 4 3 3 3 3 3 3 3 3 3 3 3 3 3 3 5 4 3 3 3 3 3 3 3 3 2 2 2
4 4 3 3 4 4 4 4 4 5 4 4 4 4 2 2 2 2 2 2 3 3 3 3 3 2 2 3 3 3 2 3 4 3 3 4 4 4 4 3 3 3 3 2
7 7 7 7 5 4 4 3 3 4 4 4 3 2 3 3 4 4 3 1 1 1 2 3 2 2 2 2 3 2 3 3 3 3 3 3 4 4 4 3 3 3 2 2
4 4 4 4 4 4 4 3 3 3 3 3 3 3 4 4 3 3 2 2 2 2 3 2 2 2 2 2 3 2 3 3 2 2 2 4 4 3 3 3 3 3 3 2
3 3 3 3 3 3 3 3 2 2 2 3 3 2 1 1 2 2 2 2 3 3 3 2 2 2 2 2 3 2 3 3 3 3 2 3 3 3 3 3 3 3 3 3
3 3 3 3 2 2 3 2 2 3 3 3 3 3 3 2 2 2 2 2 3 2 1 2 2 2 2 2 3 2 3 3 3 3 3 3 4 3 3 3 3 3 3 3
3 3 3 3 2 2 2 2 2 2 2 2 2 2 2 1 1 1 2 3 3 2 1 2 2 3 3 3 2 2 2 3 3 3 3 3 3 4 3 3 3 3 3 3
3 3 3 3 3 2 2 1 1 2 2 3 3 3 3 3 2 2 2 2 2 2 2 2 3 3 4 3 2 2 2 3 3 3 3 3 3 3 4 4 3 3 3 3
2 2 2 2 2 1 1 2 2 1 1 1 2 2 2 1 1 1 2 2 2 2 1 3 4 4 4 3 2 2 2 2 2 2 2 2 3 3 3 3 3 3 3 3
2 2 1 1 2 2 3 2 1 0 0 0 0 0 0 2 2 1 1 1 2 1 1 3 4 4 3 2 3 3 2 3 3 3 3 3 3 3 3 3 3 3 3 3
2 2 2 3 3 2 2 2 2 1 1 1 1 1 0 0 1 1 1 1 1 1 1 1 2 3 2 2 3 2 2 2 2 2 3 3 3 3 3 3 3 2 2 2
1 1 1 0 1 1 1 2 2 2 2 2 1 1 0 1 1 1 1 1 1 1 1 1 1 2 2 2 2 2 2 2 2 2 2 2 2 2 2 3 2 2 2 2
Wind_Direction
229 235 220 235 248 234 220 207 207 229 229 242 229 204 196 177 149 141 149 153 158 168 187 191 188 189 189 189 183 175 172 183 198 202 198 192 190 197 200 199 206 202 201 207
284 278 259 260 254 236 230 226 222 223 247 255 217 178 163 160 156 163 174 172 168 163 167 181 191 194 195 194 191 178 181 195 200 193 194 199 199 197 192 195 198 191 201 206
266 299 338 271 248 225 212 216 201 225 244 243 169 186 192 181 173 182 188 187 185 186 191 194 192 188 193 198 190 183 189 197 199 194 198 206 203 197 198 199 195 200 209 211
217 5 243 247 251 196 170 248 223 213 228 193 200 202 185 169 174 188 195 194 197 199 204 204 188 179 177 174 180 188 195 202 202 198 203 207 202 204 208 201 195 202 208 210
161 218 265 295 288 212 183 270 297 197 174 115 100 73 354 237 189 192 198 198 199 198 191 178 176 172 152 153 170 183 198 207 208 203 203 205 210 215 211 197 200 203 198 199
159 193 233 253 282 262 142 252 293 190 168 149 100 105 262 263 230 200 178 168 164 158 151 160 184 159 145 164 179 203 213 217 210 200 201 207 214 216 212 197 202 198 201 205
183 216 256 266 288 68 162 246 265 200 180 166 189 216 224 206 184 188 167 160 142 135 146 176 179 151 155 179 215 227 221 212 203 202 203 204 204 203 189 185 183 191 202 224
167 200 255 288 98 163 221 238 231 199 189 185 212 149 148 146 145 134 157 154 144 138 151 186 161 155 175 214 230 219 195 196 211 213 213 193 174 183 174 167 170 187 198 237
191 216 253 261 209 240 208 207 211 188 192 163 150 158 153 164 173 187 190 179 151 140 139 296 209 174 194 224 203 160 148 174 203 199 196 179 174 177 173 164 174 194 197 221
258 275 283 303 322 324 255 215 205 179 170 154 159 169 173 174 185 192 226 191 157 141 156 233 257 226 205 203 174 148 151 172 178 166 160 150 169 180 180 186 191 202 212 227
262 279 311 315 299 288 306 354 60 93 146 160 154 167 179 193 207 199 198 205 180 181 210 234 248 241 208 180 157 148 158 174 178 167 161 145 141 192 198 213 206 206 217 213
240 244 230 260 272 272 276 267 197 152 151 184 174 177 175 186 198 193 203 219 209 210 226 248 245 233 219 189 169 165 174 185 183 172 168 163 150 54 353 254 232 213 211 210
232 245 234 259 288 279 252 238 217 200 193 206 221 195 185 197 202 194 204 212 217 225 233 240 242 242 233 207 182 179 186 188 186 184 180 180 177 174 212 344 4 319 209 211
234 227 255 267 269 275 258 239 223 216 218 199 199 197 187 192 208 211 222 222 217 212 217 220 228 246 244 217 195 188 187 190 188 195 190 186 188 192 192 188 218 291 301 283
252 232 232 251 268 282 269 207 155 240 243 228 200 191 194 203 218 234 238 220 197 196 218 215 223 249 249 209 194 192 188 190 190 190 187 187 188 189 186 188 195 214 264 301
236 242 224 231 252 260 245 200 193 215 216 211 215 218 219 215 220 233 228 196 184 212 226 222 234 247 238 204 190 189 196 198 186 182 184 186 182 177 180 185 191 199 213 229
192 213 214 228 244 249 237 226 215 218 216 214 222 223 215 209 220 235 232 214 201 217 224 221 238 249 222 201 188 186 187 192 187 180 186 185 181 184 187 187 191 198 217 215
205 204 202 204 217 236 248 246 233 223 219 225 218 203 197 205 221 226 221 202 193 257 253 237 227 213 197 199 191 182 179 186 184 185 187 186 183 183 179 184 192 193 203 204
201 200 202 212 217 218 228 237 236 229 220 203 198 210 220 219 213 203 187 174 197 239 266 257 217 193 194 199 179 174 172 174 175 180 182 183 178 176 175 179 187 189 186 180
205 206 207 221 225 215 225 233 231 230 224 201 191 200 211 225 196 179 176 210 232 232 228 216 214 208 200 193 168 167 169 170 172 172 173 173 171 174 176 176 179 184 187 188
211 212 213 218 231 235 230 225 218 223 225 197 184 195 207 222 196 176 173 240 271 248 206 205 201 202 191 180 163 155 164 168 172 174 175 173 169 169 170 170 173 183 184 182
208 209 216 212 207 244 258 238 222 218 213 196 188 180 176 198 198 202 222 227 235 209 195 215 204 192 181 163 149 151 158 163 166 168 172 172 168 169 171 174 179 182 179 180
209 207 207 211 210 225 262 264 240 219 204 197 194 193 194 204 198 191 255 261 231 213 204 211 199 189 180 153 146 154 157 159 164 169 170 173 176 176 175 178 181 180 177 178
211 209 216 217 180 169 234 264 265 244 211 201 199 193 176 168 282 266 230 204 198 214 209 190 176 173 162 140 149 157 162 165 165 160 159 160 164 166 167 170 175 177 178 176
204 205 202 186 191 210 221 227 228 231 166 98 331 304 202 184 193 214 202 190 177 160 157 177 175 167 147 142 156 162 166 169 165 160 161 162 165 167 170 173 178 183 185 184
201 204 211 209 211 210 208 194 188 200 185 186 301 311 15 89 130 125 112 136 144 127 139 152 162 154 140 147 150 153 158 164 170 166 161 161 165 171 176 181 183 186 186 189
198 189 171 219 256 215 193 185 186 202 196 186 206 225 143 107 98 91 91 103 107 96 97 119 129 131 134 136 141 148 152 155 157 159 160 164 169 176 184 184 185 187 188 182
Height
1491 1488 1488 1488 1488 1488 1491 1494 1499 1495 1491 1486 1483 1482 1482 1482 1483 1484 1485 1485 1486 1486 1487 1488 1489 1490 1491 1492 1493 1495 1495 1496 1497 1498 1499 1500 1501 1501 1502 1503 1503 1504 1504 1505
1491 1486 1485 1486 1484 1483 1484 1485 1487 1486 1486 1480 1479 1479 1480 1481 1482 1483 1484 1484 1484 1485 1486 1486 1487 1487 1489 1489 1490 1491 1492 1493 1494 1495 1495 1496 1497 1498 1498 1499 1499 1500 1500 1501
1497 1491 1488 1491 1482 1481 1481 1482 1482 1486 1483 1479 1479 1479 1478 1479 1480 1481 1481 1482 1482 1483 1484 1484 1485 1485 1486 1487 1488 1488 1489 1489 1490 1491 1492 1492 1493 1494 1494 1495 1495 1496 1497 1497
1498 1496 1500 1486 1475 1475 1477 1478 1478 1477 1477 1476 1476 1476 1477 1477 1478 1479 1480 1480 1481 1481 1482 1482 1483 1483 1484 1485 1485 1485 1486 1486 1487 1487 1488 1489 1490 1490 1490 1491 1491 1492 1492 1493
1499 1499 1493 1482 1475 1475 1477 1479 1476 1475 1475 1475 1475 1475 1477 1477 1477 1477 1478 1478 1479 1479 1480 1481 1481 1481 1482 1482 1482 1482 1482 1483 1483 1484 1484 1485 1485 1486 1486 1487 1487 1488 1488 1488
1496 1497 1496 1484 1473 1470 1475 1481 1475 1474 1474 1474 1474 1480 1477 1475 1475 1475 1476 1476 1477 1477 1478 1478 1479 1479 1479 1479 1479 1479 1479 1479 1480 1480 1481 1481 1482 1482 1482 1483 1483 1484 1484 1484
1494 1495 1488 1476 1471 1471 1484 1482 1473 1472 1472 1472 1473 1474 1473 1473 1473 1473 1474 1474 1475 1475 1476 1476 1476 1476 1476 1476 1476 1476 1476 1476 1477 1477 1477 1477 1478 1478 1479 1479 1480 1480 1480 1481
1493 1494 1489 1472 1471 1475 1475 1470 1470 1470 1470 1470 1470 1471 1471 1471 1471 1472 1472 1473 1473 1473 1473 1474 1474 1474 1473 1473 1473 1473 1473 1473 1473 1473 1473 1474 1474 1475 1475 1476 1476 1476 1476 1477
1484 1483 1474 1471 1470 1470 1469 1469 1468 1468 1468 1468 1468 1469 1469 1470 1470 1471 1471 1471 1471 1471 1471 1471 1471 1471 1470 1470 1470 1470 1470 1470 1470 1470 1470 1470 1471 1471 1471 1472 1472 1472 1473 1473
1479 1474 1471 1470 1469 1468 1467 1466 1466 1466 1466 1466 1466 1467 1467 1468 1468 1469 1469 1469 1469 1469 1468 1468 1468 1468 1467 1467 1467 1467 1466 1466 1466 1467 1467 1467 1467 1468 1468 1468 1468 1469 1469 1469
1476 1473 1470 1468 1468 1467 1466 1465 1464 1464 1465 1464 1465 1465 1466 1466 1466 1467 1467 1467 1467 1467 1466 1466 1465 1465 1464 1464 1464 1464 1463 1463 1463 1463 1463 1464 1464 1465 1465 1465 1465 1465 1465 1465
1474 1470 1470 1468 1467 1466 1465 1463 1463 1463 1463 1463 1463 1463 1463 1464 1464 1465 1465 1465 1465 1464 1464 1463 1462 1461 1461 1461 1461 1461 1460 1460 1460 1460 1460 1461 1461 1462 1462 1463 1463 1463 1463 1463
1466 1466 1465 1465 1465 1464 1463 1462 1461 1461 1461 1461 1461 1461 1461 1461 1462 1462 1462 1462 1462 1461 1461 1460 1459 1458 1458 1458 1457 1457 1457 1457 1457 1457 1458 1458 1458 1458 1459 1460 1460 1460 1460 1460
1462 1463 1462 1462 1462 1461 1461 1460 1459 1459 1459 1459 1459 1459 1459 1459 1459 1459 1458 1458 1458 1458 1457 1456 1456 1455 1454 1454 1454 1454 1454 1454 1454 1454 1455 1455 1455 1456 1456 1456 1456 1456 1457 1457
1459 1459 1459 1458 1458 1458 1458 1457 1457 1456 1456 1456 1457 1456 1456 1456 1455 1455 1455 1455 1455 1454 1453 1452 1452 1451 1451 1451 1451 1450 1451 1451 1451 1451 1452 1452 1453 1453 1453 1453 1453 1453 1454 1454
1456 1456 1456 1456 1455 1455 1455 1455 1454 1454 1454 1453 1453 1453 1453 1452 1452 1451 1451 1451 1450 1450 1449 1449 1448 1448 1447 1447 1447 1447 1447 1447 1447 1448 1448 1449 1449 1450 1450 1450 1451 1451 1451 1451
1453 1453 1453 1453 1453 1452 1452 1452 1451 1451 1451 1450 1450 1449 1449 1448 1448 1447 1447 1447 1447 1446 1446 1446 1445 1444 1444 1443 1443 1443 1443 1444 1444 1445 1445 1445 1446 1447 1447 1448 1448 1448 1448 1449
1449 1449 1450 1450 1450 1449 1449 1448 1448 1448 1447 1447 1446 1446 1445 1445 1444 1444 1443 1443 1443 1443 1442 1442 1442 1441 1440 1440 1440 1439 1440 1440 1440 1441 1441 1442 1443 1444 1445 1445 1445 1446 1446 1446
1446 1446 1447 1447 1447 1446 1446 1445 1445 1444 1444 1444 1443 1442 1442 1441 1441 1440 1440 1440 1439 1438 1438 1438 1438 1437 1437 1437 1436 1436 1436 1436 1437 1438 1438 1439 1440 1441 1441 1442 1442 1443 1443 1443
1443 1443 1444 1444 1444 1443 1443 1442 1441 1441 1441 1440 1440 1439 1439 1438 1438 1437 1437 1437 1436 1436 1435 1435 1435 1434 1434 1433 1433 1433 1433 1433 1434 1434 1435 1436 1437 1438 1438 1439 1439 1440 1440 1441
1440 1440 1440 1440 1440 1440 1440 1439 1438 1438 1438 1437 1437 1436 1436 1435 1435 1434 1434 1433 1433 1433 1432 1432 1431 1431 1431 1431 1430 1430 1430 1430 1431 1431 1432 1433 1434 1435 1436 1436 1437 1437 1438 1438
1437 1437 1437 1437 1437 1437 1437 1436 1436 1435 1434 1434 1434 1433 1433 1432 1432 1431 1431 1431 1430 1430 1429 1429 1428 1428 1428 1428 1427 1427 1428 1428 1428 1429 1430 1430 1431 1432 1433 1434 1434 1435 1435 1435
1434 1434 1434 1434 1434 1434 1434 1434 1433 1432 1431 1431 1430 1430 1430 1429 1429 1428 1428 1428 1427 1427 1426 1426 1425 1425 1425 1425 1425 1425 1426 1426 1426 1427 1428 1428 1429 1430 1430 1431 1432 1433 1433 1433
1431 1431 1431 1431 1431 1431 1431 1430 1430 1429 1428 1428 1428 1427 1427 1427 1426 1426 1425 1425 1424 1423 1423 1423 1423 1423 1423 1423 1423 1423 1424 1424 1424 1425 1425 1426 1427 1428 1428 1429 1429 1430 1430 1430
1428 1428 1428 1428 1427 1427 1427 1427 1426 1426 1425 1425 1425 1425 1425 1424 1424 1423 1422 1422 1421 1421 1420 1420 1420 1420 1420 1420 1421 1421 1421 1422 1422 1423 1423 1424 1424 1425 1426 1426 1427 1427 1428 1427
1425 1425 1425 1425 1425 1424 1424 1423 1423 1423 1423 1422 1422 1422 1422 1422 1421 1420 1420 1419 1419 1418 1418 1418 1418 1418 1418 1419 1419 1419 1420 1420 1420 1421 1421 1422 1422 1423 1424 1424 1424 1425 1425 1425
1422 1422 1422 1422 1422 1422 1421 1421 1420 1420 1420 1420 1420 1420 1419 1419 1419 1418 1418 1417 1417 1417 1416 1416 1416 1416 1417 1417 1417 1417 1418 1418 1418 1419 1419 1419 1420 1421 1421 1421 1421 1422 1422 1422